Theta_e
315 314 314 315 315 316 317 316 317 317 318 318 319 319 320 320 320 320 320 321 321 320 320 319 319 322 315 305 310 324 339 337 317 312 309 307 302 300 299 299 301 299 304 307 309 317 318
316 314 314 315 315 316 317 317 317 317 317 318 318 319 319 319 319 319 319 319 319 319 319 319 320 320 312 300 316 326 318 316 309 306 306 306 304 304 300 300 299 303 303 303 306 312 317
315 314 314 315 316 317 317 317 317 318 318 318 318 318 318 318 319 319 319 318 317 318 319 319 321 318 310 303 318 319 313 311 311 310 306 308 308 304 303 301 302 304 301 302 304 307 309
315 315 315 316 316 317 317 317 317 318 318 318 318 318 318 318 319 319 319 318 317 319 320 319 322 315 308 316 316 316 314 313 314 313 312 313 309 304 301 302 304 301 301 294 300 306 311
316 315 316 316 316 316 316 316 317 317 318 318 318 317 317 318 318 318 317 316 318 321 320 323 314 311 309 323 313 316 314 312 312 313 312 316 309 303 303 297 295 297 294 294 299 302 305
317 316 316 317 316 316 316 316 316 317 318 318 318 317 316 317 317 317 315 316 318 319 319 322 319 305 311 311 311 316 316 314 310 309 307 306 302 299 296 296 290 293 294 294 296 302 301
317 317 317 317 317 317 316 316 316 317 317 318 318 317 316 316 316 315 312 309 302 299 303 300 302 311 311 314 315 313 316 313 308 304 297 300 297 294 298 299 300 299 296 297 301 304 300
317 317 318 318 318 317 316 316 316 317 317 317 317 316 316 316 315 315 309 305 305 302 297 304 306 306 309 309 305 310 314 305 301 295 299 296 294 301 303 302 299 298 296 296 299 303 300
318 317 318 318 318 316 316 316 316 316 316 316 315 315 315 315 314 311 309 310 313 306 295 302 306 306 306 308 305 306 309 303 298 296 297 294 298 304 302 301 298 297 294 295 296 301 301
317 318 318 318 317 317 316 316 316 317 316 315 315 314 314 313 309 309 308 313 316 308 293 301 305 309 308 307 303 311 309 304 298 296 296 296 302 301 299 299 298 294 301 301 300 298 292
317 318 318 317 317 317 316 316 316 316 316 315 314 315 314 313 306 306 311 315 315 304 287 309 306 312 307 303 304 305 308 303 298 298 297 296 300 300 299 301 302 300 302 300 299 295 294
317 318 318 318 317 317 316 315 316 316 315 314 314 315 313 309 306 309 313 312 304 293 288 304 304 302 300 302 303 305 304 305 304 300 300 299 304 303 302 305 305 306 300 297 296 294 290
317 317 318 318 318 317 316 316 315 315 314 314 314 313 311 311 301 308 311 304 291 287 303 301 301 302 299 299 301 302 300 298 296 291 291 298 299 304 307 302 304 302 293 287 288 288 290
316 317 318 318 318 317 316 316 315 314 313 313 312 311 308 311 308 309 307 295 286 296 298 304 302 302 299 299 300 301 300 296 300 297 293 291 291 301 307 302 299 298 296 290 286 288 290
317 316 317 318 317 317 316 315 315 313 312 311 309 305 306 308 312 310 299 287 289 296 301 300 300 297 297 301 301 299 298 298 300 299 294 292 295 305 306 309 306 301 295 299 294 292 290
317 316 316 317 317 317 316 316 315 314 312 311 304 302 304 311 312 308 295 290 293 301 302 302 296 300 295 297 297 299 298 302 301 302 301 297 292 303 307 307 307 303 303 295 292 287 286
316 316 316 316 316 316 316 316 315 314 312 309 302 302 310 312 310 302 291 292 297 303 304 301 297 298 298 297 298 299 302 308 310 307 300 298 295 296 302 300 300 300 297 298 297 295 290
316 316 316 317 316 316 316 316 315 313 310 307 302 297 312 311 298 297 293 298 301 302 304 302 302 302 299 300 298 300 302 307 314 312 299 299 294 291 296 303 306 305 302 299 294 292 297
316 316 316 316 316 316 316 315 314 313 311 302 298 301 312 308 293 293 298 301 303 302 302 301 301 302 302 298 295 303 305 313 315 313 307 303 292 288 292 298 303 303 305 304 299 297 296
316 316 316 316 316 316 316 314 313 314 312 304 299 297 303 303 300 297 296 298 299 306 304 304 300 301 297 296 298 298 303 311 314 311 317 307 294 292 290 296 301 300 304 305 300 294 296
315 316 316 316 316 316 314 313 313 314 312 304 299 299 301 295 298 299 297 300 299 299 305 302 297 299 297 292 296 296 304 306 312 312 308 304 297 299 299 302 303 302 304 305 302 302 298
316 316 316 316 316 314 313 314 314 313 311 302 297 300 303 300 300 300 299 299 301 302 303 302 300 305 300 293 296 295 301 301 305 306 302 303 298 299 297 303 303 301 304 304 306 305 304
315 316 316 315 314 314 313 314 315 314 310 301 305 306 302 298 297 296 296 300 302 304 306 308 306 303 302 304 306 306 302 303 308 302 300 301 298 296 295 301 300 296 304 305 306 306 305
314 314 314 313 312 313 313 313 314 313 311 308 304 303 298 296 299 300 303 303 304 305 302 308 308 302 309 312 309 309 303 307 306 304 304 300 298 298 296 299 288 300 310 311 308 308 309
312 311 311 311 310 311 312 313 312 311 310 303 305 305 299 294 301 303 303 302 304 304 305 307 311 311 310 306 300 297 296 297 298 303 304 306 303 298 297 295 298 305 307 306 304 305 311
310 310 310 310 309 309 311 311 310 309 309 303 303 308 305 296 297 305 302 301 297 298 302 307 311 312 309 301 299 291 290 294 294 301 308 306 305 301 298 294 291 302 310 313 310 299 311
309 310 310 309 309 308 310 310 309 307 309 304 302 307 305 297 302 304 300 299 302 299 299 303 305 306 308 300 296 293 294 299 293 295 297 298 299 298 296 294 301 310 314 314 296 297 314
309 309 309 309 309 309 309 309 308 308 309 305 300 306 305 298 301 306 307 301 301 299 294 298 302 303 303 297 298 297 297 300 296 300 298 298 296 296 298 296 294 314 314 302 305 312 317
308 308 309 309 309 309 308 308 307 308 312 308 298 308 311 304 301 306 308 309 307 306 300 298 301 303 308 300 302 301 300 300 298 294 305 298 301 300 301 300 308 312 313 313 313 313 311
Wind_Speed
2 1 2 4 5 6 7 8 9 10 12 13 15 18 19 20 20 21 21 21 22 20 17 15 13 9 3 3 9 3 8 6 5 5 5 3 1 4 2 4 4 4 6 9 3 13 11
3 2 3 4 5 6 7 8 9 10 12 13 15 17 19 21 21 21 22 22 21 19 15 13 9 1 2 3 3 9 9 5 4 4 5 6 5 6 4 5 4 5 6 5 6 12 10
4 3 3 4 5 6 7 9 10 11 13 14 16 18 21 23 23 23 24 23 21 20 14 9 5 3 1 14 2 6 8 6 4 4 2 5 4 2 4 8 2 4 8 7 5 8 6
5 3 4 4 5 7 7 9 11 12 14 15 17 19 21 23 25 25 26 26 24 18 8 5 3 2 8 5 5 4 2 4 5 6 4 9 3 3 2 2 9 6 3 2 6 7 11
6 5 4 4 5 7 8 9 11 13 14 16 17 18 21 24 25 27 27 31 20 3 6 8 2 1 11 7 6 8 6 4 5 5 6 10 1 1 6 4 6 7 3 2 9 2 6
8 6 5 5 5 6 7 9 10 12 14 16 17 19 21 24 26 26 29 26 4 4 3 4 3 3 6 3 5 7 8 5 4 4 5 2 5 3 4 5 4 4 3 4 2 7 3
9 8 8 6 5 5 6 7 8 10 13 15 17 19 21 25 26 25 16 8 10 7 2 9 10 7 13 7 8 5 7 5 2 3 3 5 3 5 7 7 7 3 4 6 7 7 6
10 10 9 8 7 6 6 7 7 8 10 13 16 18 21 25 28 24 1 5 3 9 12 7 17 15 18 3 5 9 8 5 4 3 2 5 5 11 7 6 4 5 7 10 8 9 8
11 11 10 9 8 7 7 7 8 9 10 11 14 17 20 26 29 4 5 5 7 11 2 11 7 7 7 11 9 11 9 5 3 3 5 7 10 5 5 7 5 7 6 7 10 7 5
13 11 10 10 9 8 8 8 9 10 11 12 13 15 17 27 6 7 7 9 16 4 4 9 6 8 7 7 5 9 8 7 3 7 5 6 12 8 6 8 4 9 7 7 5 1 5
14 13 12 10 9 8 7 8 9 10 12 13 13 13 13 6 5 5 8 15 17 4 4 4 4 4 7 8 3 5 6 4 7 7 7 10 3 5 5 8 5 14 9 7 4 4 3
15 14 13 11 10 9 8 8 9 10 12 13 15 14 12 3 2 10 11 14 3 5 6 6 3 5 6 4 4 4 4 3 5 4 3 8 5 4 6 6 5 9 2 4 4 3 0
17 16 14 12 11 9 8 8 8 10 12 14 16 17 7 2 6 4 9 5 5 3 6 4 3 4 6 7 5 7 7 5 5 2 5 7 6 5 4 5 6 3 6 4 6 3 6
19 17 14 13 11 10 9 8 8 9 11 13 17 21 8 7 6 1 4 5 3 4 6 7 9 4 6 2 6 5 8 7 5 4 2 1 10 3 3 6 5 7 8 7 6 4 5
19 17 15 13 11 11 10 8 8 8 11 12 17 4 5 6 9 4 5 3 7 5 4 7 10 6 8 7 1 4 9 11 9 9 9 3 7 5 9 7 5 3 3 9 5 2 3
19 17 16 13 12 11 10 8 8 9 10 7 6 5 6 3 10 5 5 6 5 3 7 6 3 3 7 8 7 5 2 6 6 10 8 7 7 4 5 4 6 8 5 1 2 4 5
19 18 16 14 12 11 10 8 6 9 10 7 2 5 5 8 6 5 4 7 5 7 7 3 7 4 3 4 4 5 5 4 10 8 2 5 4 6 5 2 1 7 5 2 5 5 7
22 19 17 15 13 11 9 7 5 7 11 4 2 3 4 4 4 3 3 4 6 7 7 7 5 1 2 3 4 4 4 4 9 3 7 6 6 4 10 10 12 10 10 5 6 5 2
24 21 19 16 13 12 10 8 6 2 6 2 2 5 5 6 2 2 5 6 7 16 15 6 4 4 4 1 3 1 4 6 11 8 3 3 2 3 12 8 4 2 3 3 3 3 4
24 23 20 17 14 13 11 9 7 3 2 3 2 3 5 4 3 6 2 7 6 7 11 9 6 3 3 3 1 4 5 4 6 5 2 5 3 8 8 7 3 2 3 3 5 4 4
23 22 20 17 15 14 12 9 7 5 2 3 1 4 1 4 4 5 1 5 12 7 5 4 5 6 6 3 4 4 3 3 6 7 5 6 2 6 11 9 4 4 3 2 5 1 6
25 24 22 19 17 15 12 9 8 7 4 2 2 1 4 3 4 3 4 6 8 13 6 6 4 1 5 3 7 4 2 2 2 5 4 5 3 7 6 7 6 4 4 6 4 8 5
24 22 22 20 18 16 13 9 10 8 4 2 2 4 3 4 4 3 2 7 6 5 6 4 5 2 5 4 3 4 3 3 7 5 3 4 3 5 7 8 8 5 4 7 9 4 6
25 24 22 18 16 14 13 10 10 8 5 2 2 1 2 3 2 2 10 7 13 5 2 5 2 4 2 3 1 2 6 4 4 3 2 6 5 3 6 5 4 4 9 4 18 12 14
21 21 19 17 15 13 12 11 10 8 3 1 2 2 2 1 3 7 16 9 7 8 8 6 7 4 5 3 5 4 5 5 3 3 4 3 5 1 2 2 4 5 6 3 2 0 6
16 15 16 15 13 11 12 13 11 7 4 1 2 2 1 2 2 6 4 6 4 6 6 6 5 6 5 3 4 4 5 5 2 1 3 3 3 5 3 2 6 4 6 6 4 3 1
12 13 13 13 11 12 13 12 9 6 6 2 3 1 3 0 3 5 4 4 5 4 2 3 8 9 5 3 1 2 4 3 4 7 5 3 3 4 6 3 5 8 7 3 6 6 3
11 11 12 12 11 10 12 12 11 9 10 4 4 3 4 1 5 2 3 2 5 4 3 6 5 6 5 5 2 3 3 2 3 3 2 4 6 2 5 4 3 3 4 4 6 4 9
11 10 12 13 12 11 11 12 11 11 10 6 1 3 2 2 6 4 13 15 10 13 2 3 4 1 2 2 2 1 3 3 3 2 5 3 2 4 5 5 6 3 2 7 4 5 1
Wind_Direction
260 315 1 8 2 355 349 346 345 343 339 337 335 331 327 322 320 319 316 313 310 309 310 312 316 318 305 348 254 154 137 139 143 157 166 151 163 165 245 241 345 194 294 313 167 159 147
264 307 344 358 354 349 346 344 342 340 338 336 330 328 324 322 322 320 314 311 305 303 304 306 305 1 309 299 222 149 141 136 224 206 157 165 200 197 255 259 140 271 294 266 271 154 149
271 294 323 341 344 342 343 344 343 342 340 335 331 330 327 325 322 321 316 311 306 301 295 287 276 244 283 237 269 159 153 185 214 208 223 197 186 208 264 330 328 250 307 341 257 157 108
252 273 301 322 333 337 342 343 342 339 337 334 333 329 328 325 323 322 319 311 310 303 280 229 193 228 255 271 142 150 224 269 263 247 241 276 249 237 219 275 350 336 50 46 280 131 158
239 241 271 301 319 332 337 339 338 337 335 333 330 329 328 326 324 324 323 314 312 338 131 147 130 126 273 303 162 212 166 204 224 262 249 274 8 162 13 58 2 6 258 214 322 153 162
236 240 242 265 295 316 326 330 332 333 331 331 331 331 329 327 325 327 325 311 264 107 153 190 247 344 282 260 249 175 208 226 199 279 342 356 46 49 38 72 224 257 291 304 230 289 163
230 231 236 242 255 277 299 313 322 327 326 330 331 332 331 328 324 325 338 354 7 351 93 221 241 256 291 278 271 221 175 189 99 79 199 289 67 238 231 198 217 244 274 276 262 268 179
228 237 236 239 245 259 281 298 312 320 323 327 329 332 333 329 320 321 298 5 258 278 304 236 252 251 250 70 304 302 117 146 117 209 231 356 239 241 240 257 255 270 267 272 290 261 175
225 230 235 245 255 269 280 297 311 319 323 325 327 330 334 330 318 357 299 251 319 355 286 294 228 221 219 149 215 249 147 165 148 215 227 190 243 240 223 275 288 272 232 253 236 294 230
219 225 232 239 245 258 282 299 313 320 321 323 324 329 336 329 35 326 293 317 338 340 29 276 228 248 167 161 261 201 171 142 195 208 232 232 259 241 260 256 179 277 225 248 277 115 229
216 218 223 231 240 256 274 295 308 314 317 318 319 327 335 343 286 329 272 334 322 62 3 257 221 166 129 150 165 237 162 92 192 229 114 245 270 241 222 234 224 245 241 235 245 257 64
213 217 220 221 229 241 261 280 298 309 314 313 313 317 336 62 273 243 307 299 28 49 257 302 145 177 107 233 253 50 148 100 198 195 236 236 257 236 222 295 277 263 281 12 40 114 291
210 213 215 218 223 231 249 269 287 307 313 312 310 304 297 235 242 300 344 8 54 172 310 343 291 165 156 188 242 144 164 185 175 101 303 314 273 260 244 315 311 119 63 339 341 359 214
207 209 209 215 221 227 238 260 282 303 307 312 310 303 243 209 226 262 14 48 181 253 253 316 337 294 172 134 261 193 143 197 261 116 102 191 317 197 238 196 217 272 158 160 200 218 245
205 204 207 210 218 225 233 252 277 299 309 320 312 306 267 242 195 121 83 104 210 226 312 352 334 28 4 352 220 143 180 196 204 171 171 177 259 331 313 282 155 257 179 195 183 211 356
201 201 204 204 212 224 228 242 273 298 311 338 327 318 261 213 139 100 83 234 240 281 351 6 318 45 27 339 33 13 190 243 225 193 147 225 295 239 294 339 263 170 195 192 343 208 250
197 195 198 204 205 216 222 238 270 302 312 316 329 331 264 144 97 66 169 236 282 279 330 317 312 287 32 358 357 324 5 54 357 328 142 143 143 279 24 296 37 351 303 102 138 161 178
189 191 194 200 199 205 214 228 255 305 326 64 323 315 252 39 88 178 209 217 321 286 304 274 262 182 88 6 316 339 70 48 341 358 165 217 148 272 244 251 269 246 263 191 138 259 133
184 191 191 191 190 194 202 214 235 279 21 22 266 261 296 115 161 249 293 282 266 280 279 280 287 157 100 53 333 327 57 73 35 59 55 316 300 1 331 342 33 114 320 350 88 99 181
185 186 182 181 179 185 189 195 218 193 65 83 312 336 309 38 174 155 238 276 267 272 278 244 249 139 106 37 349 296 4 58 85 53 299 149 169 165 196 217 171 296 39 342 115 78 197
181 182 176 174 171 172 172 183 196 167 127 87 225 251 224 323 334 354 203 282 283 292 269 304 188 163 159 156 357 309 28 33 46 330 54 86 30 348 282 258 309 242 166 277 66 283 64
176 173 171 166 168 158 159 170 179 160 133 108 226 339 341 263 272 257 208 244 230 263 234 306 79 6 79 149 189 247 175 159 198 13 61 3 357 5 296 289 261 250 243 92 90 75 134
170 163 162 157 157 152 158 161 167 160 153 199 291 318 109 275 334 13 307 306 297 247 239 197 160 110 80 188 160 242 224 161 168 128 109 72 67 28 288 320 309 313 17 108 115 88 89
150 147 142 147 148 146 158 157 157 146 184 287 243 337 68 286 334 9 335 323 340 351 271 175 109 109 259 132 109 5 110 97 121 62 100 131 116 150 261 350 274 272 346 108 116 116 122
120 127 131 140 143 150 152 153 140 147 155 177 286 24 49 320 329 327 347 347 354 3 25 45 353 339 344 53 58 35 343 8 267 96 143 156 139 123 239 211 324 346 359 338 161 341 324
116 125 134 143 147 154 164 153 145 154 150 107 268 239 198 107 207 333 317 355 13 340 15 337 330 321 50 70 75 164 221 214 254 78 141 105 84 115 53 314 221 266 298 310 331 13 270
122 135 142 141 146 166 179 167 162 173 194 153 269 298 83 196 257 22 19 331 332 350 72 329 332 352 30 45 104 205 247 194 169 191 194 93 68 123 75 336 329 261 267 262 82 216 279
146 152 155 151 155 155 159 186 185 200 199 155 255 231 128 233 280 4 345 333 339 23 65 286 28 347 12 48 79 305 24 348 17 324 276 150 142 190 149 193 248 253 303 179 167 175 98
153 157 159 159 159 161 161 175 195 196 179 157 288 304 140 148 244 231 269 239 211 224 210 346 157 295 185 72 13 39 14 347 53 300 318 354 107 169 192 206 236 255 96 75 101 99 120